Location: Vinland
(47.7731°N, 122.6974°W)
Time: 19:21:53
(UTC+00:00)

Vanguard 1 Rocket - Pass Details

Date: 30 March 2023
Orbit: 655 x 4220 km, 34.3° (Epoch: 05 June)

Event Time Altitude Azimuth Distance (km) Brightness Sun altitude
Exits shadow 12:37:14 12° 225° (SW) 3,691 9.9 -13.3°
Drops below altitude 10° 12:39:41 10° 209° (SSW) 3,565 10.0 -12.9°
Sets 12:44:17 0° 180° (S) 3,948 10.5 -12.2°
